When you browse on this site, cookies collect data to enhance your experience and personalize the content and advertising you see.
Visit our Privacy Policy to learn more. By continuing to use the site, you agree to this use of cookies and data.
  • In Hungary
  • List of Countries
  • For 7 days
  • Water Temperature
  • Weather Map
  • News
  • Weather Widgets
  • user-avatar
    Login

    Hourly Weather Vyrubovo

    Today, 20 January, Monday

    Time Temperature Precipitation Wind Pressure Humidity
    00:00 -2°C° 0 mm 4 mps 751 mmHg 91%
    01:00 -2°C° 0 mm 4 mps 751 mmHg 91%
    02:00 -2°C° 0 mm 5 mps 751 mmHg 91%
    03:00 -2°C° 0 mm 5 mps 750 mmHg 91%
    04:00 -2°C° 0 mm 5 mps 750 mmHg 91%
    05:00 -2°C° 0 mm 5 mps 750 mmHg 90%
    06:00 -2°C° 0 mm 5 mps 750 mmHg 91%
    07:00 -2°C° 0 mm 5 mps 750 mmHg 91%
    08:00 -2°C° 0 mm 5 mps 750 mmHg 92%
    09:00 -2°C° 0 mm 5 mps 750 mmHg 91%
    10:00 -1°C° 0 mm 5 mps 750 mmHg 91%
    11:00 -1°C° 0 mm 5 mps 750 mmHg 90%
    12:00 -1°C° 0 mm 5 mps 750 mmHg 88%
    13:00 -1°C° 0 mm 5 mps 750 mmHg 86%
    14:00 -1°C° 0 mm 5 mps 750 mmHg 84%
    15:00 -1°C° 0 mm 5 mps 750 mmHg 85%
    16:00 -1°C° 0 mm 5 mps 749 mmHg 86%
    17:00 -1°C° 0 mm 5 mps 749 mmHg 87%
    18:00 -2°C° 0 mm 5 mps 749 mmHg 87%
    19:00 -2°C° 0 mm 5 mps 749 mmHg 86%
    20:00 -3°C° 0 mm 6 mps 749 mmHg 86%
    21:00 -2°C° 0 mm 5 mps 748 mmHg 86%
    22:00 -4°C° 0 mm 5 mps 748 mmHg 86%
    23:00 -4°C° 0 mm 5 mps 747 mmHg 87%

    Tomorrow, 21 January, Tuesday

    Time Temperature Precipitation Wind Pressure Humidity
    00:00 -4°C° 0 mm 5 mps 747 mmHg 87%
    01:00 -4°C° 0 mm 5 mps 746 mmHg 87%
    02:00 -3°C° 0 mm 6 mps 746 mmHg 87%
    03:00 -3°C° 0 mm 6 mps 745 mmHg 87%
    04:00 -3°C° 0 mm 6 mps 744 mmHg 87%
    05:00 -3°C° 0 mm 6 mps 742 mmHg 86%
    06:00 -2°C° 0 mm 6 mps 742 mmHg 87%
    07:00 -2°C° 0 mm 6 mps 741 mmHg 88%
    08:00 -1°C° 0 mm 6 mps 741 mmHg 88%
    09:00 -1°C° 0 mm 6 mps 740 mmHg 89%
    10:00 -1°C° 0 mm 6 mps 739 mmHg 90%
    11:00 +1°C° 0 mm 6 mps 739 mmHg 91%
    12:00 +1°C° 0 mm 6 mps 738 mmHg 91%
    13:00 +1°C° 0 mm 6 mps 738 mmHg 91%
    14:00 +2°C° 0 mm 6 mps 737 mmHg 91%
    15:00 +2°C° 0.1 mm 6 mps 736 mmHg 92%
    16:00 +2°C° 0.1 mm 6 mps 735 mmHg 92%
    17:00 +2°C° 0.1 mm 6 mps 734 mmHg 92%
    18:00 +2°C° 0.2 mm 7 mps 734 mmHg 91%
    19:00 +2°C° 0.2 mm 7 mps 734 mmHg 91%
    20:00 +3°C° 0.2 mm 7 mps 733 mmHg 90%
    21:00 +2°C° 0.1 mm 7 mps 733 mmHg 89%
    22:00 +2°C° 0.1 mm 7 mps 733 mmHg 88%
    23:00 +2°C° 0.1 mm 7 mps 733 mmHg 86%

    Day after tomorrow, 22 January, Wednesday

    Time Temperature Precipitation Wind Pressure Humidity
    00:00 +1°C° 0 mm 6 mps 733 mmHg 84%
    01:00 -2°C° 0 mm 6 mps 733 mmHg 81%
    02:00 -3°C° 0 mm 6 mps 733 mmHg 79%
    03:00 -3°C° 0 mm 6 mps 733 mmHg 80%
    04:00 -4°C° 0 mm 5 mps 732 mmHg 80%
    05:00 -4°C° 0 mm 5 mps 732 mmHg 81%
    06:00 -4°C° 0 mm 5 mps 732 mmHg 81%
    07:00 -4°C° 0 mm 5 mps 731 mmHg 82%
    08:00 -4°C° 0 mm 5 mps 731 mmHg 82%
    09:00 -4°C° 0 mm 6 mps 731 mmHg 80%
    10:00 -3°C° 0 mm 6 mps 730 mmHg 79%
    11:00 -3°C° 0 mm 7 mps 730 mmHg 78%
    12:00 -3°C° 0 mm 6 mps 730 mmHg 76%
    13:00 -3°C° 0 mm 6 mps 729 mmHg 74%
    14:00 -3°C° 0 mm 6 mps 729 mmHg 72%
    15:00 -3°C° 0.1 mm 6 mps 729 mmHg 75%
    16:00 -4°C° 0.1 mm 5 mps 729 mmHg 77%
    17:00 -4°C° 0.1 mm 5 mps 729 mmHg 80%
    18:00 -5°C° 0 mm 5 mps 729 mmHg 78%
    19:00 -5°C° 0 mm 5 mps 730 mmHg 77%
    20:00 -5°C° 0 mm 5 mps 730 mmHg 76%
    21:00 -5°C° 0 mm 5 mps 730 mmHg 79%
    22:00 -5°C° 0 mm 6 mps 730 mmHg 82%
    23:00 -5°C° 0 mm 6 mps 731 mmHg 85%

    23 January, Thursday

    Time Temperature Precipitation Wind Pressure Humidity
    00:00 -6°C° 0.1 mm 6 mps 731 mmHg 80%
    01:00 -7°C° 0.1 mm 7 mps 732 mmHg 74%
    02:00 -7°C° 0.1 mm 7 mps 732 mmHg 69%
    03:00 -8°C° 0 mm 7 mps 733 mmHg 68%
    04:00 -8°C° 0 mm 8 mps 733 mmHg 67%
    05:00 -10°C° 0 mm 8 mps 734 mmHg 66%
    06:00 -10°C° 0 mm 8 mps 734 mmHg 64%
    07:00 -9°C° 0 mm 7 mps 735 mmHg 63%
    08:00 -9°C° 0 mm 7 mps 736 mmHg 61%
    09:00 -9°C° 0 mm 7 mps 736 mmHg 59%
    10:00 -9°C° 0 mm 7 mps 737 mmHg 56%
    11:00 -8°C° 0 mm 8 mps 738 mmHg 54%
    12:00 -8°C° 0 mm 7 mps 738 mmHg 53%
    13:00 -8°C° 0 mm 7 mps 738 mmHg 52%
    14:00 -8°C° 0 mm 7 mps 739 mmHg 51%
    15:00 -8°C° 0 mm 6 mps 739 mmHg 54%
    16:00 -7°C° 0 mm 5 mps 740 mmHg 57%
    17:00 -8°C° 0 mm 4 mps 740 mmHg 60%
    18:00 -8°C° 0 mm 4 mps 741 mmHg 63%
    19:00 -7°C° 0 mm 3 mps 741 mmHg 66%
    20:00 -6°C° 0 mm 2 mps 741 mmHg 69%
    21:00 -7°C° 0 mm 3 mps 741 mmHg 70%
    22:00 -7°C° 0 mm 3 mps 741 mmHg 71%
    23:00 -7°C° 0 mm 4 mps 741 mmHg 72%

    24 January, Friday

    Time Temperature Precipitation Wind Pressure Humidity
    00:00 -7°C° 0 mm 4 mps 740 mmHg 74%
    01:00 -7°C° 0 mm 4 mps 739 mmHg 76%
    02:00 -7°C° 0 mm 5 mps 738 mmHg 78%
    03:00 -6°C° 0.3 mm 5 mps 737 mmHg 83%
    04:00 -6°C° 0.3 mm 6 mps 736 mmHg 88%
    05:00 -7°C° 0.3 mm 7 mps 735 mmHg 93%
    06:00 -5°C° 0.4 mm 6 mps 735 mmHg 93%
    07:00 -5°C° 0.4 mm 6 mps 734 mmHg 94%
    08:00 -4°C° 0.4 mm 6 mps 733 mmHg 94%
    09:00 -3°C° 0.1 mm 6 mps 733 mmHg 94%
    10:00 -2°C° 0.1 mm 6 mps 733 mmHg 94%
    11:00 0°C° 0.1 mm 5 mps 733 mmHg 94%
    12:00 +1°C° 0.1 mm 5 mps 733 mmHg 93%
    13:00 +1°C° 0.1 mm 5 mps 733 mmHg 93%
    14:00 +1°C° 0.1 mm 5 mps 733 mmHg 92%
    15:00 0°C° 0 mm 5 mps 734 mmHg 91%
    16:00 0°C° 0 mm 5 mps 734 mmHg 90%
    17:00 -1°C° 0 mm 4 mps 735 mmHg 89%
    18:00 -1°C° 0 mm 4 mps 735 mmHg 90%
    19:00 -2°C° 0 mm 4 mps 735 mmHg 91%
    20:00 -1°C° 0 mm 3 mps 735 mmHg 92%
    21:00 -1°C° 0 mm 3 mps 735 mmHg 93%
    22:00 0°C° 0 mm 3 mps 735 mmHg 93%
    23:00 0°C° 0 mm 3 mps 736 mmHg 93%

    25 January, Saturday

    Time Temperature Precipitation Wind Pressure Humidity
    00:00 0°C° 0 mm 3 mps 735 mmHg 93%
    01:00 0°C° 0 mm 3 mps 735 mmHg 94%
    02:00 -1°C° 0 mm 3 mps 735 mmHg 95%
    03:00 0°C° 0.2 mm 3 mps 735 mmHg 95%
    04:00 0°C° 0.2 mm 3 mps 735 mmHg 96%
    05:00 0°C° 0.2 mm 3 mps 734 mmHg 97%
    06:00 0°C° 0.6 mm 4 mps 734 mmHg 97%
    07:00 0°C° 0.6 mm 4 mps 734 mmHg 97%
    08:00 0°C° 0.6 mm 5 mps 734 mmHg 97%
    09:00 0°C° 0.3 mm 5 mps 734 mmHg 97%
    10:00 0°C° 0.3 mm 4 mps 734 mmHg 97%
    11:00 0°C° 0.3 mm 4 mps 734 mmHg 97%
    12:00 0°C° 0 mm 4 mps 734 mmHg 97%
    13:00 0°C° 0 mm 4 mps 734 mmHg 96%
    14:00 0°C° 0 mm 4 mps 734 mmHg 96%
    15:00 0°C° 0 mm 4 mps 735 mmHg 96%
    16:00 0°C° 0 mm 4 mps 735 mmHg 95%
    17:00 0°C° 0 mm 4 mps 735 mmHg 95%
    18:00 0°C° 0 mm 4 mps 736 mmHg 95%
    19:00 0°C° 0 mm 4 mps 736 mmHg 95%
    20:00 0°C° 0 mm 4 mps 736 mmHg 96%
    21:00 0°C° 0 mm 4 mps 736 mmHg 96%
    22:00 0°C° 0 mm 4 mps 737 mmHg 96%
    23:00 0°C° 0 mm 4 mps 737 mmHg 95%
    Show more